Preview of NWS' New Version of Forecast
This preview is not operational and should not be used for support decisions.

Regional Weather Roundup (RWR)

Issued by National Weather Service (NWS)

                            
000
ASPQ40 PGUM 170210
RWRPQ 
WEATHER ROUNDUP FOR THE MARIANAS AND MICRONESIA
NATIONAL WEATHER SERVICE TIYAN GU
1200 PM CHST SUN FEB 17 2019

GUZ001>004-170300-
MARIANA ISLANDS-
  
CITY           SKY/WX    TMP DP  RH WIND       PRES   REMARKS
GUAM AIRPORT   MOSUNNY   86  70  58 E16       30.01F HX  90           
ANDERSEN AFB   MOSUNNY   84  70  61 NE20      30.02F                  
ROTA AIRPORT   MOSUNNY   81  70  69 E14       30.00F                  
TINIAN AP      MOSUNNY  N/A N/A N/A E17       30.00F                  
SAIPAN AP      MOSUNNY   84  68  58 E17       30.01F                  

$$

PMZ161-170300-
REPUBLIC OF PALAU-
  
CITY           SKY/WX    TMP DP  RH WIND       PRES   REMARKS
KOROR AP       PTSUNNY   81  75  83 E8        29.94F                  
KOROR WSO      NOT AVBL                                               

$$

PMZ171>174-170300-
FEDERATED STATES OF MICRONESIA-
  
CITY           SKY/WX    TMP DP  RH WIND       PRES   REMARKS
YAP AIRPORT    LGT RAIN  79  75  89 NE12      30.00R                  
CHUUK AP       CLOUDY    84  81  89 NE14      29.85F HX  98           
POHNPEI AP     CLOUDY    82  75  78 NE12      29.81F                  
POHNPEI WSO    NOT AVBL                                               
KOSRAE AP      CLOUDY    81  77  89 N24       29.75F                  

$$

PMZ181-170300-
REPUBLIC OF THE MARSHALL ISLANDS-
  
CITY           SKY/WX    TMP DP  RH WIND       PRES   REMARKS
KWAJALEIN AP   NOT AVBL                                               
MAJURO AP      NOT AVBL                                               
MAJURO WSO     PTSUNNY   84  77  79 E12       29.71F HX  94           

$$